Regional Weather Roundup
Issued by NWS Raleigh/Durham, NC

Home | Current Version | Previous Version | Text Only | Print | Product List | Glossary On
Versions: 1 2 3 4 5 6 7 8 9 10 11 12 13 14 15 16 17 18 19 20 21 22 23 24 25 26 27 28 29 30 31 32 33 34 35 36 37 38 39 40 41 42 43 44 45 46 47 48 49 50
000
ASUS42 KRAH 301610
RWRRAH
NORTH CAROLINA WEATHER ROUNDUP
NATIONAL WEATHER SERVICE RALEIGH NC
1200 PM EDT SAT AUG 30 2014

NOTE: "FAIR" INDICATES FEW OR NO CLOUDS BELOW 12,000 FEET WITH NO
SIGNIFICANT WEATHER AND/OR OBSTRUCTIONS TO VISIBILITY.

NCZ001-053-055-056-065-067-301700-
WESTERN NORTH CAROLINA

CITY           SKY/WX    TMP DP  RH WIND       PRES   REMARKS
ASHEVILLE      SUNNY     80  66  62 SE7       30.26F
JEFFERSON      NOT AVBL
HICKORY        PTSUNNY   81  71  71 NE5       30.22F
RUTHERFORDTON  PTSUNNY   82  72  70 S5        30.23S
MOUNT AIRY     NOT AVBL
BOONE          SUNNY     78  59  52 S3        30.32F
$$

NCZ021-022-025-041-071-084-088-301700-
CENTRAL NORTH CAROLINA

CITY           SKY/WX    TMP DP  RH WIND       PRES   REMARKS
CHARLOTTE      MOSUNNY   84  67  56 SE8       30.22F
GREENSBORO     MOSUNNY   84  70  62 S5        30.22S
WINSTON-SALEM  PTSUNNY   83  68  60 S3        30.23F
RALEIGH-DURHAM MOSUNNY   83  72  69 CALM      30.23S
FORT BRAGG     CLOUDY    82  73  74 NE5       30.21F
FAYETTEVILLE   PTSUNNY   85  74  69 VRB5      30.21F
BURLINGTON     MOSUNNY   83  70  64 S7        30.22F
LAURINBURG     MOSUNNY   86  71  60 VRB5      30.21F
$$

NCZ011-015-027-028-043-044-047-080-103-301700-
NORTHEASTERN NORTH CAROLINA

CITY           SKY/WX    TMP DP  RH WIND       PRES   REMARKS
ROCKY MT-WILSO MOSUNNY   83  72  69 VRB3      30.22F
GREENVILLE     SUNNY     84  72  65 N3        30.23S
WASHINGTON     MOSUNNY   83  73  71 S3        30.22F
ELIZABETH CITY MOSUNNY   82  73  74 E12       30.23
MANTEO         CLOUDY    81  73  76 E6        30.23S
CAPE HATTERAS  NOT AVBL
$$

NCZ078-087-090-091-093-098-101-301700-
SOUTHEASTERN NORTH CAROLINA

CITY           SKY/WX    TMP DP  RH WIND       PRES   REMARKS
LUMBERTON      MOSUNNY   87  72  60 S7        30.20F
GOLDSBORO      SUNNY     86  73  63 VRB6      30.20S
KINSTON        SUNNY     84  72  65 CALM      30.22F
KENANSVILLE    SUNNY     85  69  60 CALM      30.23S
NEW BERN       MOSUNNY   86  71  60 CALM      30.22F
CHERRY POINT   PTSUNNY   87  70  56 VRB3      30.23S
BEAUFORT       PTSUNNY   83  75  77 S7        30.22S
JACKSONVILLE   SUNNY     85  73  67 VRB3      30.21S
WILMINGTON     CLOUDY    83  73  72 N5        30.21S
$$



USA.gov is the U.S. government's official web portal to all federal, state and local government web resources and services.